Location: Dampvalley
(47.9094°N, 6.1967°E)
Time: 05:34:49
(UTC+00:00)

SO-50 - Pass Details

Date: 30 November 2021
Orbit: 595 x 689 km, 64.6° (Epoch: 19 January)

Event Time Altitude Azimuth Distance (km) Brightness Sun altitude
Rises 16:15:43 0° 324° (NW) 3,003 ? -5.3°
Reaches altitude 10° 16:18:14 10° 334° (NNW) 2,103 ? -5.7°
Maximum altitude 16:22:34 33° 39° (NE) 1,139 ? -6.3°
Drops below altitude 10° 16:26:57 10° 104° (ESE) 2,131 ? -7.0°
Sets 16:29:30 0° 114° (ESE) 3,050 ? -7.4°
